This is the latest recevied weather packets stored in our database for station/object VR2R-13. If no packets are shown the sender has not sent any weather packets the latest 1 day(s).
| Time | Temp. | Humidity | Pressure | Rain* | Wind** | Luminosity | Snow |
|---|---|---|---|---|---|---|---|
| 1778038192 | 17.22° C | 98% | 915 hPa | 0 mm | 0 m/s | - | - |
| 1778038069 | 17.22° C | 98% | 915 hPa | 0 mm | 0 m/s | - | - |
| 1778037830 | 17.78° C | 98% | 914.9 hPa | 0 mm | 1.79 m/s, 85° | - | - |
| 1778037769 | 17.78° C | 98% | 914.9 hPa | 0 mm | 1.79 m/s, 95° | - | - |
| 1778037471 | 17.78° C | 98% | 914.9 hPa | 0 mm | 0.89 m/s, 111° | - | - |
| 1778037469 | 17.78° C | 98% | 914.9 hPa | 0 mm | 0.89 m/s, 113° | - | - |
| 1778036750 | 17.22° C | 98% | 914.9 hPa | 0 mm | 0 m/s | - | - |
| 1778036569 | 17.78° C | 98% | 914.9 hPa | 0 mm | 1.34 m/s, 82° | - | - |
| 1778036390 | 17.22° C | 98% | 914.9 hPa | 0 mm | 0 m/s | - | - |
| 1778036269 | 17.78° C | 98% | 914.9 hPa | 0 mm | 1.79 m/s, 87° | - | - |
| 1778036031 | 17.78° C | 98% | 914.9 hPa | 0 mm | 1.79 m/s, 71° | - | - |
| 1778035969 | 17.78° C | 98% | 914.9 hPa | 0 mm | 2.24 m/s, 81° | - | - |
| 1778035671 | 17.78° C | 98% | 914.9 hPa | 0 mm | 1.34 m/s, 71° | - | - |
| 1778035669 | 17.78° C | 98% | 914.9 hPa | 0 mm | 1.34 m/s, 72° | - | - |
| 1778035369 | 17.22° C | 98% | 914.9 hPa | 0 mm | 3.13 m/s, 87° | - | - |
| 1778035310 | 17.22° C | 98% | 914.9 hPa | 0 mm | 1.34 m/s, 90° | - | - |
| 1778035069 | 17.78° C | 98% | 914.9 hPa | 0 mm | 0.45 m/s, 95° | - | - |
| 1778034950 | 17.22° C | 98% | 914.9 hPa | 0 mm | 0 m/s | - | - |
| 1778034769 | 17.78° C | 98% | 914.8 hPa | 0 mm | 2.68 m/s, 62° | - | - |
| 1778034590 | 17.78° C | 98% | 914.8 hPa | 0 mm | 2.68 m/s, 86° | - | - |
| 1778034469 | 17.22° C | 98% | 914.8 hPa | 0 mm | 0 m/s | - | - |
| 1778034230 | 17.22° C | 98% | 914.8 hPa | 0 mm | 2.24 m/s, 88° | - | - |
| 1778034168 | 17.22° C | 98% | 914.8 hPa | 0 mm | 0.45 m/s, 75° | - | - |
| 1778033870 | 17.22° C | 98% | 914.9 hPa | 0 mm | 2.68 m/s, 82° | - | - |
| 1778033868 | 17.22° C | 98% | 914.9 hPa | 0 mm | 2.68 m/s, 78° | - | - |
* Rain latest hour (hover to see other rain measurements)
** Current wind speed in m/s (hover to see current wind gust speed)